Showing default

GONETS M 15 (M25), 44906

Orbit data source: Space-Track

GONETS M 15 (M25), 44906 is a payload satellite owned by Gonets (CIS) in LEO that was launched on Thu, 26 Dec 2019 UTC via an ROKOT launch vehicle from the Plesetsk Missile And Space Complex (PKMTR). Payload-class satellites include a variety of spacecraft equipped with specific instruments for various scientific and technological missions. These include communications satellites like Starlink; space stations such as the ISS; scientific satellites like the Hubble; Earth observation satellites from companies like Planet Labs, Umbra, and HawkEye 360; GPS; miniature CubeSats for education and research; and military/defense satellites.

Loading next visibility...
Identifier
44906, 2019-096B
Orbit
LEO
Country
Flag of CISCIS
Related business
Manufacturer
Resehetnev ISS
Mission
Operational Commercial Communications
Bus & Motor
STRELA-3M, Unknown motor
Mass
225 kg wet, 225 kg dry
Launch date (UTC)
2019-12-26 (6 years ago)
Launch vehicle
ROKOT
Launch site
Plesetsk Missile And Space Complex (PKMTR)
Object type
Payload
Rocket body
Debris
Shape & HBR
Cyl + 1 Ant, 3.5 m
Radar Cross Section
1.798 m², Large (>1 m²)

Expand to show TLE details & history
Last TLE update: 5 hours ago

TLE from 5 hours ago
0 GONETS M 15 (M25)
1 44906U 19096B   26126.54050119 -.00000045  00000-0 -39678-3 0  9997
2 44906  82.5214 110.9156 0013926 267.7301  92.2184 12.42869624288476
Epoch: 2026-05-06T12:58Z
TLE epoch observation values (Epoch: 2026-05-06T12:58:19.302Z)
Latitude
-0.00006°
Longitude
51.93564°
Altitude
1,497.602 km
Speed
7.115 km/s
True Right ascension
07h 23m 39s
True Declination
0° 00' 00"
Sunlit
Object was in daylight at epoch
Visualization orbit readout
Latitude
Unknown
Longitude
Unknown
Altitude
Unknown
Speed
Unknown
Apparent Right ascension
Unknown
Apparent Declination
Unknown
Sunlit
N/A
Visualization observer readout
Local Sidereal Time
02:23:38
Azimuth
Unknown
Elevation
Unknown
Doppler factor
Unknown
Orbital elements
Apogee altitude
1,502.772 km
Perigee altitude
1,480.853 km
Semi-major axis
7,869.949 km
Eccentricity
0.00139
Inclination
82.5214°
RAAN
110.9156°
Arg. of periapsis
267.7301°
True anomaly
92.37785°
Mean anomaly
92.2184°
Eccentric anomaly
92.29813°
Mean motion
3.10875 °/min
Orbital period
115.8 mins
BSTAR
-0.00039678
Loading maneuver chart data...
Computing Atmospheric mass density...
Loading historical data...
Loading historical data...
Loading historical data...
Loading historical data...
Loading historical data...
Loading historical data...
Loading historical data...
Other satellites on launch #96 in the year 2019 (2019-12-26 UTC)

Documentation

Showing up to 5 results
|